Flag for Brazil Weather past 2 weeks in Rio de Janeiro, Rio de Janeiro, Brazil

Now
72 °F

Partly sunny.


Feels Like: 71 °F
Forecast: 68 / 74 °F
Wind: 10 mph from South

Location: Rio De Janeiro Airport

Current Time: Oct 2, 2014 at 11:52:11 AM

Latest Report: Oct 2, 2014 at 11:00 AM


Visibility: 4 mi

Pressure: 30.21 "Hg

Humidity: 83%

Dew point: 66 °F

Location of Rio de JaneiroLocation

Historic Weather in Rio de Janeiro — Graph

°F

Rio de Janeiro temperature yesterday

Maximum temperature yesterday: 86 °F (at 2:00 PM)
Minimum temperature yesterday: 73 °F (at 6:00 AM)
Average temperature yesterday: 80 °F

Past Weeks' High & Low Weather Summary

 TemperatureHumidityPressure
High90 °F (Sep 24, 2:00 PM)100% (Sep 28, 6:00 AM)30.18 "Hg (Sep 28, 6:00 AM)
Low64 °F (Sep 23, 6:00 AM)29% (Sep 24, 2:00 PM)29.80 "Hg (Sep 26, 1:00 PM)
Average75 °F77%29.98 "Hg
* Reported Sep 17 10:00 AM — Oct 2 10:00 AM, Rio de Janeiro, Weather by CustomWeather, © 2014

Note: Actual official high and low records may vary slightly from our data, if they occured in-between our weather recording intervals... More about our weather records

Advertising

Rio de Janeiro weather history for previous 24 hours

 ConditionsComfort  
Time TempWeatherWind HumidityBarometerVisibility
10:00 AM
Oct 2
75 °FPartly sunny.13 mph74%30.18 "Hg4 mi
9:00 AM72 °FFog.9 mph88%30.18 "Hg3 mi
8:00 AM70 °FLight rain. Fog.14 mph88%30.15 "Hg2 mi
7:00 AM70 °FFog.15 mph88%30.12 "Hg2 mi
6:00 AM70 °FFog.15 mph88%30.09 "Hg2 mi
11:00 PM
Oct 1
77 °FPassing clouds.9 mph69%30.04 "HgN/A
10:00 PM77 °FPartly cloudy.7 mph69%30.04 "HgN/A
9:00 PM79 °FClear.5 mph65%30.01 "Hg10 mi
8:00 PM81 °FClear.9 mph58%29.98 "Hg10 mi
7:00 PM86 °FClear.8 mph49%29.92 "Hg10 mi
6:00 PM79 °FClear.3 mph79%29.89 "Hg10 mi
5:00 PM81 °FClear.9 mph74%29.83 "Hg10 mi
4:00 PM81 °FSunny.1 mph74%29.80 "Hg10 mi
3:00 PM82 °FScattered clouds.8 mph70%29.83 "HgN/A
2:00 PM86 °FPartly sunny.5 mph59%29.83 "HgN/A
1:00 PM77 °FPartly sunny.2 mph79%29.89 "Hg6 mi
12:00 PM79 °FScattered clouds.7 mph79%29.95 "Hg6 mi
11:00 AM84 °FScattered clouds.12 mph62%29.95 "Hg4 mi
Weather by CustomWeather, © 2014

See weather overviewHow to use our weather pages